COSMOS 1867 COOLANT

Satellite information

Favourite Embed

Satellite Type and Status

DEBRISIN ORBIT

Key statistics

Satellite COSMOS 1867 COOLANT at a glance.

Uptime

13816

Days in orbit

Revolutions

≈ 14.3

Per day

Orbit

LEO

Low Earth Orbit

Inclination

65.0

Latest

Satellite identification and parameters

Extended collection of information and parameters for COSMOS 1867 COOLANT.

Object identification

Identified? True

Debris? False

Object name: COSMOS 1867 COOLANT

International designator: 1987-060AR

Object number (NORAD): 43324

Object ID (CCSDS): 43324

Country: COMMONWEALTH OF INDEPENDENT STATES (CIS)

Current information (Y/N): Y

RCS size: SMALL

Orbital parameters

Period: 100.461 minutes

Inclination: 65.0072 deg

SMA: 7158.545 km

Apoapsis: 792.334 km

Periapsis: 768.485 km

RAAN: 77.2116 deg

Eccentricy: 0.0016658

Argument of periapsis: 255.3863 deg

Mean anomaly: 104.5376 deg

Mean motion: 14.33394207 rev/day

Mean motion (dot): 0.00000621 rev/day2

B* drag term: 0.00026069 1/REarth

Two-line elements (TLE)

Creation date: May 7, 2025, 3:14 a.m.

Reference frame: TEME

Reference center: EARTH

Epoch: May 6, 2025, 6:06 a.m. UTC

TLE line 0: 0 COSMOS 1867 COOLANT

TLE line 1: 1 43324U 87060AR 25126.25431763 .00000621 00000-0 26069-3 0 9999

TLE line 2: 2 43324 65.0072 77.2116 0016658 255.3863 104.5376 14.33394207566560

Live tracking on map

Real-time ground track for satellite COSMOS 1867 COOLANT.

In-orbit conjunctions

A list of the most updated potential collisions computed for object COSMOS 1867 COOLANT.

Target Orbit TCA Probability of collision Miss distance Type
COSMOS 1992 LEO 2025-04-19 19:46:25 0.0008016404 363.0 (m) PAYLOAD
FENGYUN 1C DEB SSO 2024-09-25 17:48:24 0.0005306294 662.0 (m) DEBRIS

Associated space launch

Nuclear-powered magnetospheric research satellite

COSMOS 1867 COOLANT was lifted into orbit during the mission ‘Tsiklon-2 | Plasma-A 2’, on board a Tsiklon-2 space rocket.

The launch took place on July 10, 1987, 3:35 p.m. from 90.

For more information about the launch, click the button.

Launch to space Tsiklon-2 | Plasma-A 2
Tsiklon-2 | Plasma-A 2

Agency: N/A

Status: Launch Successful

Launch date: July 10, 1987, 3:35 p.m. UTC

Rocket: Tsiklon-2

Launch pad: 90

Location: Baikonur Cosmodrome, Republic of Kazakhstan

...

Latest news about this satellite

There are no fresh news available about this satellite. Check back as we update our databases every day.


Newsletter sign-up

Weekly statistics, charts and insights to help you stay on top of the space industry.